Weather in Kythira

Greece     36°14′51″N   22°59′01″E
temp.,
°C
wind,
m/s
gust,
m/s
humid.,
%
clouds,
%
prec.,
mm/h
press.,
hPa
HPBL,
m
20 september, mon
mon2000:00+24wsw813780 0.0 1015342
03:00+24w711810 0.0 1015291
06:00+24w712820 0.0 1014303
09:00+25wsw711750 0.0 1015351
12:00+28wsw711620 0.0 1016431
15:00+28w812600 0.0 1014502
18:00+27w813700 0.0 1014388
21:00+24wsw612890 0.0 1014288
21 september, tue
tue2100:00+24w711931 0.0 1015284
03:00+24w610815 0.0 1015211
06:00+23w588194 0.0 1014169
09:00+25wnw466094 0.0 1015185
12:00+29w344595 0.0 1016328
15:00+28w46569 0.0 1016443
18:00+26w35655 0.0 1015254
21:00+24e22784 0.0 101541
22 september, wed
wed2200:00+23ene12677 0.0 101617
03:00+23ne678297 0.0 1016353
06:00+22ene687711 0.0 1015405
09:00+23ne78660 0.0 1016611
12:00+24ne65600 0.0 1016725
15:00+26n03505 0.0 1014989
18:00+24wsw810685 0.0 1013788
21:00+23wnw912770 0.0 1011495
23 september, thu
thu2300:00+23wnw810730 0.0 1011425
03:00+22wnw810680 0.0 1010503
06:00+21n56691 0.0 1011486
09:00+19ne997362 0.1 1013977
12:00+20ne12115850 0.1 10161098
15:00+18ne101062100 0.1 10161134
18:00+18ne7865100 0.1 10161174
21:00+18ne8964100 0.2 10181322
24 september, fri
fri2400:00+18ne996036 0.0 10191247
03:00+18ne810590 0.0 1018940
06:00+18ne910570 0.0 1018945
09:00+19ne89540 0.0 10191139
12:00+21ne78500 0.0 10201150
15:00+21ne44450 0.0 10191006
18:00+21nnw12440 0.0 1019857
21:00+19w357517 0.0 1019312